Regional Weather Roundup
Issued by NWS

Home | Current Version | Previous Version | Graphics & Text | Print | Product List | Glossary On
Versions: 1 2 3 4 5 6 7 8 9 10 11 12 13 14 15 16 17 18 19 20 21 22 23 24 25 26 27 28 29 30 31 32 33 34 35 36 37 38 39 40 41 42 43 44 45 46 47 48 49 50
000
ASUS45 KTFX 270104
RWRMT
MONTANA HOURLY WEATHER ROUNDUP
NATIONAL WEATHER SERVICE GREAT FALLS MT
604 PM MST WED NOV 26 2014

NOTE: "FAIR" INDICATES FEW OR NO CLOUDS BELOW 12000 FEET WITH NO
SIGNIFICANT WEATHER AND/OR OBSTRUCTIONS TO VISIBILITY.

* THESE STATIONS ARE NOT UNDER NWS QUALITY CONTROL. THEY DO NOT
   REPORT WEATHER SUCH AS PRECIPITATION OR FOG.

MTZ001>007-043-270200-
WEST OF THE DIVIDE
CITY           SKY/WX    TMP DP  RH WIND       PRES   REMARKS
KALISPELL      LGT SNOW  32  32 100 CALM      30.10F VSB 3
MISSOULA       FOG       32  32 100 W3        30.15F
BUTTE          CLOUDY    43  28  56 NE5       30.13F
MULLAN PASS    FOG       36  36 100 W9G18     30.08F VSB M1/4 WCI  29
* ESSEX        N/A       31  29  92 N/A        N/A
* LINCOLN      N/A       37  35  92 SW4G10     N/A
* LOOKOUT PASS N/A       40  37  89 N2         N/A
* POLSON       N/A       34  34 100 SE2        N/A
* RONAN APT    CLOUDY    34  30  85 N/A        N/A
* SEELEY LAKE  N/A       32  31  96 S1G6       N/A
* THOMP F APT  CLOUDY    33  30  89 NE3        N/A
* YAAK HILL    N/A       32  30  92 E1         N/A
$$

MTZ008-052>055-270200-
SOUTHWEST MONTANA
CITY           SKY/WX    TMP DP  RH WIND       PRES   REMARKS
BOZEMAN        CLOUDY    27  25  92 S3        30.13F
DILLON         CLOUDY    41  28  60 SE9       30.16F
* W YELLOWSTON CLOUDY    35  33  92 SW5G13     N/A   WCI  31
* ENNIS APT    CLOUDY    45  28  51 SE9        N/A
* THREE FORKS  CLOUDY    25   0  33 N/A        N/A
* BOULDER HILL N/A       37  29  73 SE8G20     N/A   WCI  31
* MONIDA PASS  N/A       31  31 100 SE16       N/A   WCI  20
* RAYNOLDS PAS N/A       31  14  49 S16        N/A   WCI  20
* WHITEHALL    N/A       47  30  52 SW11G19    N/A
* WISE RIVER   N/A       42  29  60 W7         N/A
$$

MTZ009>010-012-014-046-048-049-054-270200-
EAST SLOPES AND CENTRAL MONTANA
CITY           SKY/WX    TMP DP  RH WIND       PRES   REMARKS
CUT BANK       CLOUDY    28  27  96 SE13      30.05F WCI  17
GREAT FALLS    FOG       28  28 100 E6        30.07S VSB M1/4 WCI  21
HELENA         FOG       28  27  96 SW5       30.12S VSB 3    WCI  22
MALMSTROM AFB  FOG       28  28 100 NE5       30.10S VSB 1/4  WCI  22
* DEARBORN     N/A       32  30  92 NE2        N/A
* EAST GLACIER N/A       27  26  96 E2         N/A
* MONARCH      N/A       27  23  85 E2         N/A
* PENDROY      N/A       27  27 100 S9         N/A   WCI  18
* ROGERS PASS  N/A       37  33  85 E12G20     N/A   WCI  29
* SAINT MARY   N/A       32  31  96 NW3G8      N/A
* SWEET GRASS  N/A       27  27 100 S17        N/A   WCI  14
$$

MTZ011-013-016-021-035-040-045-047-050-051-270200-
NORTH CENTRAL MONTANA
CITY           SKY/WX    TMP DP  RH WIND       PRES   REMARKS
HAVRE          LGT SNOW  30  27  89 E9        30.16F WCI  22
LEWISTOWN      LGT SNOW  28  25  89 E9        30.09F WCI  19
* N BAR RANCH  FOG       28  23  81 S8        30.11F VSB 2 1/2 WCI  20
* CHESTER      N/A       27  25  92 SE8G15     N/A   WCI  19
* DENTON       N/A       29  28  96 E2         N/A
* GEYSER       N/A       27  26  96 NE4        N/A
* JUDITH GAP   N/A       25  25 100 S14        N/A   WCI  13
* LOMA         N/A       29  28  96 E16        N/A   WCI  17
$$

MTZ017>020-022>027-061-062-270200-
NORTHEAST MONTANA
CITY           SKY/WX    TMP DP  RH WIND       PRES   REMARKS
GLASGOW        CLOUDY    18  12  77 E15       30.27F WCI   4
GLENDIVE       CLOUDY    16  10  77 NE6       30.32S WCI   7
JORDAN         CLOUDY    27  25  92 E8        30.25F WCI  19
SIDNEY         MOCLDY    10   7  88 N8        30.37F WCI  -2
WOLF POINT     CLOUDY    18   9  68 E7        30.35S WCI   9
* BEAVER HILL  N/A       17  12  81 E4         N/A
* CIRCLE       N/A       21  17  84 N/A        N/A
* LINDSAY DVD  N/A       18  16  92 SE5        N/A   WCI  11
* NAVAJO       N/A        6   2  83 SE5        N/A   WCI  -3
* SACO         N/A       23  19  85 E11        N/A   WCI  12
$$

MTZ028>042-056>058-270200-
SOUTHCENTRAL AND SOUTHEAST MONTANA
CITY           SKY/WX    TMP DP  RH WIND       PRES   REMARKS
BAKER          CLOUDY    19  16  88 S7        30.29S WCI  10
BILLINGS       CLOUDY    28  27  96 SE3       30.17F
LIVINGSTON     CLOUDY    27  25  92 CALM      30.09F
MILES CITY     LGT SNOW  27  23  85 E6        30.27S WCI  20
* LAUREL APT   CLOUDY    28  21  75 N/A        N/A
* ALZADA       N/A       26  24  92 NE4        N/A
* HYSHAM       N/A       28  26  92 E8         N/A   WCI  20
* REED POINT   N/A       29  28  96 E4         N/A
* ROSCOE HILL  N/A       26  21  81 E6         N/A   WCI  19
$$

REGIONAL REPORTS...DAKOTAS
CITY           SKY/WX    TMP DP  RH WIND       PRES   REMARKS
WILLISTON      CLOUDY     9   1  70 N5        30.38F
DICKINSON      MOCLDY    12   9  88 E7        30.30S WCI   1
BEACH          CLOUDY    14  12  92 CALM      30.30S
CROSBY         CLEAR    -11 -15  82 CALM      30.41S
BISMARCK       PTCLDY    -6  -9  87 E5        30.45S WCI -18
GRAND FORKS    PTCLDY    -9 -15  74 N6        30.53S WCI -23
FARGO          PTCLDY    -2  -9  72 N8        30.52R WCI -17
BUFFALO SD     CLOUDY    19  16  88 E6        30.22S WCI  11
RAPID CITY     CLOUDY    28  25  89 CALM      30.27R
$$

REGIONAL REPORTS...WYOMING/IDAHO/WASHINGTON
CITY           SKY/WX    TMP DP  RH WIND       PRES   REMARKS
GILLETTE       CLOUDY    27  23  85 SE6       30.20R WCI  20
SHERIDAN       CLOUDY    28  25  89 CALM      30.17F
CODY           MOCLDY    21  19  92 CALM      30.14R
YELLOWSTONE LA CLOUDY    34  28  79 VRB7      30.28R WCI  28
SALMON         CLOUDY    34  30  85 E3        30.19S VSB 2
MULLAN PASS    FOG       36  36 100 W9G18     30.08S VSB M1/4 WCI  29
SAND POINT     CLOUDY    34  34 100 NE3       30.10F
SPOKANE        FOG       36  36 100 CALM      30.07F VSB M1/4
$$

REGIONAL REPORTS...SASKATCHEWAN
CITY           SKY/WX    TMP DP  RH WIND       PRES   REMARKS
MOOSE JAW      LGT SNOW N/A N/A N/A SE9        N/A

$$




USA.gov is the U.S. government's official web portal to all federal, state and local government web resources and services.